Flag for U.S.A. Weather past 2 weeks in Pasadena, California, U.S.A.

Now
82 °F

Sunny.


Feels Like: 81 °F
Forecast: 60 / 82 °F
Wind: 13 mph from South

Location: Burbank-Glendale-Pasadena Airport

Current Time: Aug 20, 2014 at 2:17:43 PM

Latest Report: Aug 20, 2014 at 1:53 PM


Visibility: 10 mi

Pressure: 29.86 "Hg

Humidity: 40%

Dew point: 55 °F

Location of PasadenaLocation

Historic Weather in Pasadena — Graph

°F

Pasadena temperature yesterday

Maximum temperature yesterday: 81 °F (at 1:53 PM)
Minimum temperature yesterday: 67 °F (at 1:53 AM)
Average temperature yesterday: 71 °F

Past Weeks' High & Low Weather Summary

 TemperatureHumidityPressure
High94 °F (Aug 15, 2:53 PM)90% (Aug 10, 6:53 AM)30.03 "Hg (Aug 10, 6:53 AM)
Low61 °F (Aug 6, 5:53 AM)15% (Aug 5, 2:53 PM)29.74 "Hg (Aug 18, 3:53 PM)
Average74 °F58%29.90 "Hg
* Reported Aug 5 12:53 PM — Aug 20 12:53 PM, Pasadena, Weather by CustomWeather, © 2014

Note: Actual official high and low records may vary slightly from our data, if they occured in-between our weather recording intervals... More about our weather records

Advertising

Pasadena weather history for previous 24 hours

 ConditionsComfort  
Time TempWeatherWind HumidityBarometerVisibility
12:53 PM
Aug 20
80 °FSunny.8 mph39%29.88 "Hg10 mi
11:53 AM78 °FSunny.8 mph43%29.90 "Hg10 mi
10:53 AM74 °FSunny.8 mph53%29.91 "Hg10 mi
10:00 AM72 °FScattered clouds.No wind61%29.95 "Hg10 mi
8:53 AM68 °FOvercast.No wind70%29.91 "Hg10 mi
7:53 AM67 °FOvercast.3 mph73%29.89 "Hg10 mi
6:53 AM66 °FOvercast.6 mph75%29.89 "Hg10 mi
5:53 AM67 °FOvercast.6 mph73%29.87 "Hg10 mi
4:53 AM67 °FPassing clouds.7 mph73%29.85 "Hg10 mi
3:53 AM68 °FOvercast.7 mph70%29.86 "Hg10 mi
2:53 AM68 °FOvercast.6 mph73%29.85 "Hg10 mi
1:53 AM68 °FOvercast.8 mph73%29.84 "Hg10 mi
12:53 AM68 °FOvercast.6 mph73%29.85 "Hg10 mi
11:53 PM
Aug 19
69 °FOvercast.6 mph73%29.84 "Hg10 mi
10:53 PM68 °FOvercast.No wind76%29.85 "Hg10 mi
9:53 PM68 °FOvercast.No wind76%29.85 "Hg10 mi
8:53 PM68 °FOvercast.6 mph76%29.84 "Hg10 mi
7:53 PM69 °FSunny.6 mph73%29.82 "Hg10 mi
6:53 PM72 °FSunny.8 mph66%29.80 "Hg10 mi
5:53 PM74 °FSunny.9 mph62%29.80 "Hg10 mi
4:53 PM76 °FSunny.13 mph58%29.80 "Hg10 mi
3:53 PM78 °FPassing clouds.13 mph54%29.80 "Hg10 mi
2:53 PM81 °FPassing clouds.13 mph47%29.81 "Hg10 mi
Weather by CustomWeather, © 2014

See weather overviewHow to use our weather pages